Location: Boca do Mato
(22.9085°S, 43.2930°W)
Time: 21:37:24
(UTC+00:00)

PSLV R/B - Pass Details

Date: 14 July 2020
Orbit: 504 x 578 km, 97.8° (Epoch: 10 August)

Event Time Altitude Azimuth Distance (km) Brightness Sun altitude
Rises 07:43:07 0° 12° (NNE) 2,742 7.7 -25.0°
Reaches altitude 10° 07:45:16 10° 12° (NNE) 1,843 6.8 -24.5°
Enters shadow 07:48:59 77° 14° (NNE) 573 3.8 -23.7°
